Location: Benque
(43.2594°N, 0.9178°E)
Time: 05:41:34
(UTC+00:00)

ATLAS CENTAUR R/B - Pass Details

Date: 24 January 2020
Orbit: 458 x 690 km, 64.6° (Epoch: 06 February)

Event Time Altitude Azimuth Distance (km) Brightness Sun altitude
Rises 19:02:53 0° 325° (NW) 2,735 5.3 -22.8°
Reaches altitude 10° 19:05:10 10° 325° (NW) 1,797 4.3 -23.2°
Enters shadow 19:08:24 56° 322° (NW) 618 1.6 -23.8°
